Location: Newark
(49.8348°N, 24.0280°E)
Time: 02:31:52
(UTC+00:00)

deb Explorer IX - Pass Details

Date: 04 February 2020
Orbit: 549 x 1099 km, 38.8° (Epoch: 25 February)

Event Time Altitude Azimuth Distance (km) Brightness Sun altitude
Rises 17:29:24 0° 239° (WSW) 3,300 ? -20.6°
Reaches altitude 10° 17:32:03 10° 228° (SW) 2,462 ? -21.0°
Maximum altitude 17:37:03 29° 171° (S) 1,635 ? -21.8°
Enters shadow 17:38:51 25° 144° (SE) 1,816 ? -22.1°
